Location: El Conde
(10.2895°N, 67.2409°W)
Time: 06:46:30
(UTC+00:00)

Milstar 3 - Pass Details

Date: 19 May 2024
Orbit: 1097 x 5147 km, 28.2° (Epoch: 21 June)

Event Time Altitude Azimuth Distance (km) Brightness Sun altitude
Rises 23:11:14 0° 296° (WNW) 3,905 8.3 -7.0°
Reaches altitude 10° 23:13:44 10° 295° (WNW) 2,943 6.8 -7.6°
Maximum altitude 23:20:23 81° 208° (SSW) 1,267 3.1 -9.1°
Enters shadow 23:29:14 12° 122° (ESE) 3,878 4.9 -11.1°
